FW0979 Weather Reports


time (UTC)temp
C
wind
direction
speed
KPH
gust
KPH
rain 1hr
cm
rain 24hr
cm
rain mn
cm
humidity
%
barometer
mb
20260904003005 32 92 12.9 25.7 0.00 0.00 0.00 31 1003.6
20260904001504 32 127 12.9 27.4 0.00 0.00 0.00 31 1003.5
20260904000004 32 101 14.5 27.4 0.00 0.00 0.00 32 1003.5
20260903234503 32 114 12.9 27.4 0.00 0.00 0.00 33 1003.5
20260903233007 32 94 14.5 29.0 0.00 0.00 0.00 32 1003.7
20260903231508 32 360 16.1 30.6 0.00 0.00 0.00 33 1003.7
20260903230004 35 89 12.9 22.5 0.00 0.00 0.00 27 1003.6
20260903224501 34 94 14.5 22.5 0.00 0.00 0.00 29 1003.4
20260903223002 35 56 11.3 20.9 0.00 0.00 0.00 25 1003.4
20260903221500 37 207 8.0 20.9 0.00 0.00 0.00 22 1003.2
20260903214558 35 301 14.5 27.4 0.00 0.00 0.00 25 1003.2
20260903213103 35 240 16.1 33.8 0.00 0.00 0.00 26 1003.3
20260903211607 36 202 16.1 33.8 0.00 0.00 0.00 25 1003.4
20260903210057 37 201 9.7 27.4 0.00 0.00 0.00 21 1003.5
20260903204556 37 234 6.4 12.9 0.00 0.00 0.00 21 1003.6
20260903203052 37 119 4.8 12.9 0.00 0.00 0.00 22 1003.7
20260903201551 38 131 4.8 14.5 0.00 0.00 0.00 21 1003.9
20260903200049 38 193 8.0 20.9 0.00 0.00 0.00 20 1004.0
20260903194548 38 134 4.8 16.1 0.00 0.00 0.00 20 1004.0
20260903193046 38 143 8.0 20.9 0.00 0.00 0.00 21 1004.3
20260903191542 38 321 6.4 17.7 0.00 0.00 0.00 21 1004.6
20260903190040 38 268 9.7 22.5 0.00 0.00 0.00 21 1004.9
20260903184548 37 230 6.4 12.9 0.00 0.00 0.00 21 1005.4
20260903183035 38 221 3.2 14.5 0.00 0.00 0.00 21 1005.6
20260903181531 37 230 6.4 14.5 0.00 0.00 0.00 22 1005.9
20260903180026 37 257 6.4 14.5 0.00 0.00 0.00 23 1006.2
20260903174533 37 208 8.0 20.9 0.00 0.00 0.00 24 1006.3
20260903173033 36 221 6.4 14.5 0.00 0.00 0.00 25 1006.4
20260903171518 35 252 11.3 22.5 0.00 0.00 0.00 26 1006.6
20260903170022 35 219 6.4 20.9 0.00 0.00 0.00 26 1006.6
20260903164510 34 262 8.0 16.1 0.00 0.00 0.00 29 1006.7
20260903163010 33 238 6.4 16.1 0.00 0.00 0.00 30 1006.7
20260903161503 33 247 6.4 16.1 0.00 0.00 0.00 32 1006.8
20260903160108 32 193 6.4 16.1 0.00 0.00 0.00 35 1006.9
20260903154556 31 239 8.0 14.5 0.00 0.00 0.00 36 1006.9
20260903153101 31 244 8.0 19.3 0.00 0.00 0.00 37 1007.0
20260903151549 30 198 6.4 14.5 0.00 0.00 0.00 39 1007.1
20260903150046 29 209 6.4 16.1 0.00 0.00 0.00 41 1007.1
20260903144542 28 360 9.7 17.7 0.00 0.00 0.00 43 1007.5
20260903143045 28 198 6.4 16.1 0.00 0.00 0.00 44 1007.2
20260903141536 27 199 8.0 16.1 0.00 0.00 0.00 46 1007.2
20260903140042 26 210 8.0 17.7 0.00 0.00 0.00 47 1007.2
20260903134532 25 221 8.0 14.5 0.00 0.00 0.00 49 1007.2
20260903133031 25 222 6.4 16.1 0.00 0.00 0.00 50 1007.2
20260903131530 24 219 4.8 14.5 0.00 0.00 0.00 51 1007.2
20260903130029 23 204 8.0 14.5 0.00 0.00 0.00 51 1007.0
20260903124530 24 200 6.4 14.5 0.00 0.00 0.00 50 1006.8
20260903123029 24 192 6.4 12.9 0.00 0.00 0.00 49 1006.8
20260903121523 25 224 6.4 12.9 0.00 0.00 0.00 48 1006.8
20260903120020 25 210 8.0 17.7 0.00 0.00 0.00 48 1006.6
20260903114519 25 210 9.7 20.9 0.00 0.00 0.00 48 1006.4
20260903113018 25 219 9.7 19.3 0.00 0.00 0.00 47 1006.4
20260903111516 25 164 9.7 20.9 0.00 0.00 0.00 47 1006.5
20260903110015 25 164 11.3 22.5 0.00 0.00 0.00 47 1006.4
20260903104514 25 195 9.7 20.9 0.00 0.00 0.00 46 1006.6
20260903103012 25 206 9.7 17.7 0.00 0.00 0.00 46 1006.6
20260903101510 25 203 8.0 16.1 0.00 0.00 0.00 45 1006.6
20260903100009 25 180 6.4 14.5 0.00 0.00 0.00 45 1006.8
20260903094514 25 201 8.0 16.1 0.00 0.00 0.00 43 1006.8
20260903093006 25 360 6.4 11.3 0.00 0.00 0.00 42 1006.8
20260903091502 25 217 4.8 11.3 0.00 0.00 0.00 41 1006.9
20260903090106 26 200 6.4 14.5 0.00 0.00 0.00 41 1006.7
20260903084557 26 204 4.8 12.9 0.00 0.00 0.00 40 1006.9
20260903083101 26 210 6.4 14.5 0.00 0.00 0.00 40 1006.8
20260903081655 26 206 6.4 11.3 0.00 0.00 0.00 40 1006.8
20260903080052 26 201 4.8 9.7 0.00 0.00 0.00 39 1006.9
20260903074555 26 199 3.2 9.7 0.00 0.00 0.00 38 1007.0
20260903073101 26 199 4.8 8.0 0.00 0.00 0.00 38 1007.1
20260903071558 27 202 4.8 11.3 0.00 0.00 0.00 37 1007.1
20260903070141 27 209 4.8 9.7 0.00 0.00 0.00 37 1007.0
20260903064537 27 203 6.4 16.1 0.00 0.00 0.00 37 1006.9
20260903063043 27 198 8.0 12.9 0.00 0.00 0.00 37 1006.9
20260903061536 27 199 8.0 16.1 0.00 0.00 0.00 37 1007.0
20260903060103 27 203 6.4 11.3 0.00 0.00 0.00 37 1007.0
20260903054532 27 179 6.4 11.3 0.00 0.00 0.00 37 1007.0
20260903053026 27 179 6.4 11.3 0.00 0.00 0.00 36 1006.9
20260903051526 27 172 4.8 9.7 0.00 0.00 0.00 38 1006.9
20260903050025 27 140 3.2 8.0 0.00 0.00 0.00 38 1006.9
20260903044524 28 136 3.2 8.0 0.00 0.00 0.00 38 1006.9
20260903043026 28 136 4.8 8.0 0.00 0.00 0.00 37 1006.9
20260903041525 28 135 4.8 12.9 0.00 0.00 0.00 37 1007.1
20260903040034 28 137 6.4 12.9 0.00 0.00 0.00 37 1007.1
20260903034523 28 143 6.4 14.5 0.00 0.00 0.00 37 1007.0
20260903033022 29 140 8.0 19.3 0.00 0.00 0.00 36 1006.8
20260903031530 29 107 9.7 17.7 0.00 0.00 0.00 36 1006.6
20260903030022 30 129 8.0 16.1 0.00 0.00 0.00 36 1006.4
20260903024521 30 129 8.0 16.1 0.00 0.00 0.00 36 1006.2
20260903023024 30 113 9.7 14.5 0.00 0.00 0.00 36 1006.1
20260903021521 31 120 8.0 16.1 0.00 0.00 0.00 34 1006.0
20260903020020 32 117 4.8 20.9 0.00 0.00 0.00 32 1005.8
20260903014521 32 121 1.6 8.0 0.00 0.00 0.00 31 1005.5
20260903013019 32 119 4.8 9.7 0.00 0.00 0.00 31 1005.3
20260903011519 32 91 6.4 12.9 0.00 0.00 0.00 31 1005.2
20260903010037 32 82 9.7 17.7 0.00 0.00 0.00 30 1005.3
20260903004517 32 67 9.7 19.3 0.00 0.00 0.00 32 1005.3